Hourly Weather Roundup
Issued by NWS Central Illinois

Home | Current Version | Previous Version | Text Only | Print | Product List | Glossary On
Versions: 1 2 3 4 5 6 7 8 9 10 11 12 13 14 15 16 17 18 19 20 21 22 23 24 25 26 27 28 29 30 31 32 33 34 35 36 37 38 39 40 41 42 43 44 45 46 47 48 49 50
000
NZUS43 KILX 192210
HWRILX

AREA WEATHER ROUNDUP
NATIONAL WEATHER SERVICE, LINCOLN IL
500 PM CDT FRI SEP 19 2014


CITY           SKY/WX    TMP DP  RH WIND       PRES   REMARKS
BLOOMINGTON    SUNNY     80  55  42 S14       30.04S HX  80
CHAMPAIGN      SUNNY     75  49  39 SE12      30.05S
DECATUR        SUNNY     76  49  38 S12       30.04F
FLORA          SUNNY     77  52  40 SE8       30.04S
GALESBURG      SUNNY     75  56  51 S12G18    29.99F
JACKSONVILLE   SUNNY     79  55  43 S12G17    30.02S HX  80
LACON          SUNNY     75  50  41 S12       29.99F
LAWRENCEVILLE  SUNNY     77  53  43 SE8       30.05S
LITCHFIELD     SUNNY     75  55  48 SE8       30.03F
$$


CITY           SKY/WX    TMP DP  RH WIND       PRES   REMARKS
LINCOLN        SUNNY     78  50  37 S8        29.99F
MACOMB         SUNNY     77  54  44 S14       30.02S
MATTOON        SUNNY     73  52  47 S9        30.04F
MT CARMEL AP   SUNNY     81  48  32 S6        30.04S HX  80
OLNEY-NOBLE AP SUNNY     77  52  41 CALM      30.04S
PARIS          SUNNY     75  49  39 S7        30.06F
PEORIA         SUNNY     77  53  43 S13       30.00F
PONTIAC        SUNNY     79  45  29 S13       30.02F
RANTOUL        SUNNY     77  42  28 SE7       30.06S
ROBINSON       SUNNY     76  56  48 SE8       30.06S
SPRINGFIELD    SUNNY     78  54  43 S13       30.01F
TAYLORVILLE    SUNNY     73  54  49 S9        30.03F
$$

...REGIONAL REPORTS...


CITY           SKY/WX    TMP DP  RH WIND       PRES   REMARKS
CHICAGO O`HARE PTSUNNY   78  43  28 S20       30.01F
KANKAKEE       SUNNY     73  48  41 S9        30.04F
MOLINE         SUNNY     76  53  44 S10       29.96F
MOUNT VERNON   SUNNY     79  55  44 S7        30.04F
PITTSFIELD     SUNNY     76  55  48 S8        30.02S
QUINCY         SUNNY     75  55  49 S10       29.99F
ROCKFORD       CLOUDY    74  47  38 S21G28    29.99F
$$


CITY           SKY/WX    TMP DP  RH WIND       PRES   REMARKS
BURLINGTON     SUNNY     76  56  49 S12G22    29.97F
CEDAR RAPIDS   SUNNY     73  59  61 S20G29    29.91F
DES MOINES     PTSUNNY   80  66  62 S18G29    29.86F HX  82
KIRKSVILLE     SUNNY     76  61  59 S14       29.98F
OTTUMWA        SUNNY     76  59  55 S16G25    29.93F
ST LOUIS       MOSUNNY   79  58  48 SE9       30.01F HX  80
$$


CITY           SKY/WX    TMP DP  RH WIND       PRES   REMARKS
TERRE HAUTE    SUNNY     73  51  46 SE10      30.06F
EVANSVILLE     SUNNY     79  53  40 E5        30.03F
INDIANAPOLIS   MOSUNNY   72  46  39 SE9       30.07F
LAFAYETTE      SUNNY     71  47  42 SE9       30.05F
MADISON        PTSUNNY   73  50  44 S21G29    29.92F
MILWAUKEE      PTSUNNY   70  51  51 S13       29.97F
$$




USA.gov is the U.S. government's official web portal to all federal, state and local government web resources and services.